Flag for Czechia

Past Weather in Prague, Czechia — Yesterday and Last 2 Weeks

Now
55 °F

Fog.


Feels Like: 55 °F
Forecast: 83 / 61 °F
Wind: 3 mph from South

Location: Václav Havel Airport Prague

Current Time: Jul 9, 2020 at 3:55:30 am

Latest Report: Jul 9, 2020 at 3:00 am


Visibility: 3 mi

Pressure: 30.07 "Hg

Humidity: 100%

Dew Point: 55 °F

Location of PragueLocation

Past Weather in Prague — Graph

°F

Prague Temperature Yesterday

Maximum temperature yesterday: 63 °F (at 10:30 am)
Minimum temperature yesterday: 52 °F (at 2:00 am)
Average temperature yesterday: 57 °F

High & Low Weather Summary for the Past Weeks

 TemperatureHumidityPressure
High84 °F (Jun 27, 4:00 pm)100% (Jun 24, 11:00 pm)30.24 "Hg (Jun 24, 11:00 pm)
Low45 °F (Jul 7, 4:00 am)25% (Jul 6, 4:00 pm)29.77 "Hg (Jul 1, 6:30 pm)
Average65 °F70%29.99 "Hg
* Reported Jun 24 2:00 am — Jul 9 2:00 am, Prague. Weather by CustomWeather, © 2020

Note: Actual official high and low records may vary slightly from our data, if they occured in-between our weather recording intervals... More about our weather records

Prague Weather History for the Previous 24 Hours

Scroll right to see more
 ConditionsComfort  
Time TempWeatherWind HumidityBarometerVisibility
2:00 am
Thu, Jul 9
55 °FCool.5 mph94%30.07 "Hg2 mi
1:30 am55 °FClear.5 mph94%30.07 "Hg5 mi
1:00 am54 °FClear.3 mph100%30.07 "Hg10 mi
12:30 am55 °FClear.5 mph94%30.07 "Hg10 mi
12:00 am55 °FClear.5 mph94%30.07 "Hg10 mi
11:30 pm
Wed, Jul 8
55 °FClear.6 mph100%30.07 "Hg10 mi
11:00 pm55 °FClear.6 mph100%30.07 "Hg10 mi
10:30 pm55 °FClear.5 mph100%30.07 "Hg10 mi
10:00 pm55 °FClear.6 mph100%30.07 "Hg10 mi
9:30 pm57 °FPassing clouds.7 mph94%30.07 "HgN/A
9:00 pm57 °FPassing clouds.7 mph94%30.07 "HgN/A
8:30 pm57 °FLight rain. Passing clouds.6 mph94%30.04 "HgN/A
8:00 pm57 °FPassing clouds.7 mph94%30.04 "HgN/A
7:30 pm57 °FLight rain. Scattered clouds.7 mph94%30.04 "HgN/A
7:00 pm57 °FLight rain. Partly sunny.7 mph94%30.04 "HgN/A
6:30 pm57 °FLight rain. Passing clouds.8 mph94%30.04 "HgN/A
6:00 pm57 °FLight rain. Passing clouds.9 mph94%30.04 "HgN/A
5:30 pm57 °FLight rain. Scattered clouds.10 mph94%30.04 "HgN/A
5:00 pm57 °FLight rain. Scattered clouds.10 mph94%30.04 "HgN/A
4:30 pm57 °FLight rain. Scattered clouds.12 mph94%30.04 "HgN/A
4:00 pm57 °FLight rain. Scattered clouds.10 mph88%30.04 "HgN/A
3:30 pm57 °FLight rain. Partly sunny.7 mph94%30.04 "HgN/A
3:00 pm57 °FLight rain. Scattered clouds.5 mph88%30.04 "Hg5 mi
2:30 pm57 °FLight rain. Passing clouds.5 mph88%30.04 "HgN/A
2:00 pm57 °FLight rain. Partly sunny.2 mph82%30.04 "HgN/A
1:30 pm57 °FLight rain. Partly sunny.7 mph82%30.04 "HgN/A
1:00 pm61 °FLight rain. Passing clouds.5 mph68%30.04 "HgN/A
12:30 pm61 °FLight rain. Clear.6 mph59%30.04 "HgN/A
12:00 pm61 °FLight rain. Passing clouds.3 mph63%30.01 "HgN/A
11:30 am61 °FLight rain. Passing clouds.2 mph59%30.01 "HgN/A
11:07 am63 °FLight rain. Passing clouds.3 mph56%30.01 "HgN/A
11:00 am63 °FPassing clouds.5 mph56%30.01 "HgN/A
10:30 am63 °FScattered clouds.6 mph56%30.01 "HgN/A
10:00 am61 °FPassing clouds.5 mph59%30.04 "HgN/A
9:30 am61 °FPassing clouds.6 mph59%30.04 "HgN/A
9:00 am59 °FPassing clouds.6 mph63%30.04 "HgN/A
8:30 am57 °FPassing clouds.5 mph67%30.04 "HgN/A
8:00 am57 °FPassing clouds.5 mph63%30.04 "HgN/A
7:30 am57 °FSunny.6 mph63%30.04 "Hg10 mi
7:00 am57 °FSunny.1 mph67%30.04 "Hg10 mi
6:30 am55 °FSunny.2 mph72%30.04 "Hg10 mi
6:00 am54 °FSunny.6 mph77%30.04 "Hg10 mi
5:30 am54 °FSunny.5 mph77%30.04 "Hg10 mi
5:00 am54 °FClear.6 mph72%30.04 "Hg10 mi
4:30 am52 °FClear.7 mph82%30.04 "Hg10 mi
4:00 am52 °FClear.7 mph77%30.04 "Hg10 mi
3:00 am52 °FClear.9 mph77%30.04 "Hg10 mi
Weather by CustomWeather, © 2020

See weather overview